{"data":{"norad_id":45586,"epoch":"2026-09-20T01:31:56.703072Z","epoch_age_seconds":55809,"freshness":"FRESH","line1":"1 45586U 20025BH  26263.06385073  .00094380  00000+0  43167-3 0  9995","line2":"2 45586  53.0331 149.3361 0004756 126.6430 233.5029 15.82983760356687","mean_motion":15.8298376,"eccentricity":0.0004756,"inclination_deg":53.0331,"raan_deg":149.3361,"arg_perigee_deg":126.643,"mean_anomaly_deg":233.5029,"bstar":0.00043167,"rev_number":35668,"period_min":90.967452502482,"perigee_km":318.82141420918,"apogee_km":325.1945921362,"semimajor_km":6700.1450031727,"source":"CELESTRAK","updated_at":"2026-09-20T09:00:38.449107Z"}}